HULIANWANG DIGUI-150

导读 | 豆包AI

**HULIANWANG DIGUI-150卫星**是中国于2026年1月19日发射的低轨互联网通信卫星,隶属于中国星网GW星座规划,旨在构建自主可控的全球低轨宽带通信网络。作为国网星座组网进程中的一颗卫星,它运行于近地轨道,具备传输时延低、信号损耗小等优势,将与其他已发射卫星协同,为全球盲区提供高速互联网接入,支撑6G空天地一体化网络建设,助力我国抢占太空频轨资源,保障国家战略空间安全。

基本信息
目录编号:
67526
目录名称:
HULIANWANG DIGUI-150
国际标识:
2026-013E
轨道中心:
EARTH
卫星名称:
HULIANWANG DIGUI-150
卫星全名:
HULIANWANG DIGUI-150
卫星状态:
在轨 (已飞行126 天)
发射日期:
2026-01-19 UTC
国别 :
中国 (CN)
星等 :
--
轨道信息
数据来源 国际轨道数据 AOE轨道数据
星历时间 2026-05-24T11:14:27+0800
1天前
查看轨道信息
2026-05-21T10:00:00+0800
4天前
查看轨道信息
半长轴 7527.439km 7527.458km
偏心率 0.0000915 0.0001671
轨道倾角 50.005° 50.001°
近地点辐角 21.875° 15.629°
升交点赤经 81.747° 92.692°
平近点角 338.216° 131.238°
近地点 1148.613km 1148.063km
远地点 1149.991km 1150.579km
周期 108.325分钟 108.326分钟
每日圈数 13.293273 13.293223
详细信息
使用方式:
暂无
2D轨道图
3D轨道图
轨道高度分析图
轨道倾角分析图
轨道综合分析图
查看轨道综合分析图